Port Edwards, WI

4:37 PM CST on February 26, 2017 (GMT -0600)
Alexander Field South Wood County

Weather History for KISW - March, 2014

Change the Weather History Date:

Wednesday, March 12, 2014

  Actual Average Record
Temperature  
Mean Temperature 23 °F -  
Max Temperature 34 °F 38 °F 69 °F (2016)
Min Temperature 10 °F 17 °F -13 °F (1948)
Degree Days  
Heating Degree Days 42    
Moisture  
Dew Point 12 °F    
Average Humidity 64    
Maximum Humidity 86    
Minimum Humidity 35    
Precipitation  
Precipitation 0.00 in - - ()
Sea Level Pressure  
Sea Level Pressure 30.01 in    
Wind  
Wind Speed 11 mph (NNE)    
Max Wind Speed 21 mph    
Max Gust Speed 30 mph    
Visibility 7 miles    
Events Snow    
Averages and records for this station are not official NWS values.
T = Trace of Precipitation, MM = Missing Value Source: NWS Daily Summary

Daily Weather History Graph

Daily Weather History Graph

Search for Another Location

Airport or City:

Trip Planner

Search our weather history database for the weather conditions in past years. The results will help you decide how hot, cold, wet, or windy it might be!

Date:

Astronomy

Mar. 12, 2014 Rise Set
Actual Time 7:17 AM CDT 7:01 PM CDT
Civil Twilight 6:48 AM CDT 7:30 PM CDT
Nautical Twilight 6:14 AM CDT 8:04 PM CDT
Astronomical Twilight 5:40 AM CDT 8:38 PM CDT
Moon 3:26 PM CDT (3/12) 4:55 AM CDT (3/12)
Length of Visible Light 12h 42m
Length of Day
11h 44m
Waxing Gibbous, 85% of the Moon is Illuminated
Mar 12
Waxing Gibbous
Mar 16
Full
Mar 23
Last Quarter
Mar 30
New
Apr 7
First Quarter

Hourly Weather History & Observations

Time (CDT) Temp. Windchill Dew Point Humidity Pressure Visibility Wind Dir Wind Speed Gust Speed Precip Events Conditions
12:54 AM 34.0 °F 28.0 °F 25.0 °F 70% 29.88 in 10.0 mi NNE 6.9 mph - N/A   Overcast
1:54 AM 33.1 °F 25.5 °F 23.0 °F 66% 29.90 in 10.0 mi North 9.2 mph - N/A   Overcast
2:54 AM 32.0 °F 24.2 °F 21.9 °F 66% 29.89 in 10.0 mi North 9.2 mph - N/A   Overcast
3:54 AM 32.0 °F 24.2 °F 21.0 °F 64% 29.88 in 10.0 mi North 9.2 mph - N/A   Overcast
4:54 AM 30.9 °F 23.5 °F 23.0 °F 72% 29.89 in 10.0 mi North 8.1 mph - N/A   Overcast
5:51 AM 28.4 °F 15.8 °F 21.2 °F 74% 29.90 in 4.0 mi NNE 18.4 mph - 0.00 in Snow Light Snow
5:54 AM 28.0 °F 14.6 °F 21.9 °F 78% 29.94 in 4.0 mi NNE 20.7 mph 24.2 mph 0.00 in Snow Light Snow
6:06 AM 26.1 °F 12.0 °F 21.0 °F 81% 29.92 in 2.0 mi NNE 20.7 mph 25.3 mph 0.00 in Snow Light Snow
6:15 AM 25.0 °F 11.3 °F 19.9 °F 81% 29.92 in 1.8 mi NNE 18.4 mph - 0.00 in Snow Light Snow
6:33 AM 23.0 °F 8.0 °F 18.0 °F 81% 29.94 in 1.0 mi NNE 20.7 mph 29.9 mph 0.00 in Snow Light Snow
6:54 AM 21.9 °F 6.9 °F 17.1 °F 82% 29.99 in 1.5 mi NNE 19.6 mph - 0.00 in Snow Light Snow
7:12 AM 21.9 °F 8.2 °F 17.1 °F 82% 29.96 in 2.0 mi North 16.1 mph 25.3 mph 0.00 in Snow Light Snow
7:20 AM 21.9 °F 8.2 °F 17.1 °F 82% 29.97 in 1.5 mi NNE 16.1 mph 24.2 mph 0.00 in Snow Light Snow
7:31 AM 21.9 °F 9.8 °F 16.0 °F 78% 29.97 in 2.0 mi NNE 12.7 mph - 0.00 in Snow Light Snow
7:52 AM 21.2 °F 10.1 °F 17.6 °F 86% 29.98 in 1.2 mi NNE 10.4 mph - 0.00 in Snow Light Snow
7:54 AM 21.0 °F 9.9 °F 17.1 °F 85% 30.02 in 1.0 mi NNE 10.4 mph - 0.00 in Snow Light Snow
8:04 AM 21.0 °F 8.6 °F 16.0 °F 81% 29.98 in 2.0 mi NNE 12.7 mph - 0.00 in Snow Light Snow
8:16 AM 21.0 °F 9.9 °F 16.0 °F 81% 29.98 in 5.0 mi NNE 10.4 mph - 0.00 in Snow Light Snow
8:54 AM 21.0 °F 7.6 °F 7.0 °F 55% 30.03 in 10.0 mi NNE 15.0 mph 24.2 mph 0.00 in   Overcast
9:54 AM 21.9 °F 8.7 °F 9.0 °F 58% 30.04 in 10.0 mi NNE 15.0 mph - N/A   Clear
10:54 AM 21.0 °F 7.1 °F 6.1 °F 53% 30.08 in 10.0 mi North 16.1 mph - N/A   Clear
11:54 AM 21.0 °F 8.1 °F 3.0 °F 46% 30.08 in 10.0 mi North 13.8 mph - N/A   Partly Cloudy
12:54 PM 23.0 °F 13.1 °F 1.9 °F 40% 30.08 in 10.0 mi NE 9.2 mph - N/A   Clear
1:54 PM 24.1 °F 12.5 °F 1.9 °F 38% 30.07 in 10.0 mi NNE 12.7 mph - N/A   Clear
2:54 PM 24.1 °F 15.2 °F 1.9 °F 38% 30.06 in 10.0 mi NNW 8.1 mph - N/A   Clear
3:54 PM 24.1 °F 13.1 °F -0.0 °F 35% 30.08 in 10.0 mi North 11.5 mph - N/A   Clear
4:54 PM 24.1 °F 13.1 °F 1.0 °F 37% 30.08 in 10.0 mi NW 11.5 mph - N/A   Clear
5:54 PM 24.1 °F 14.4 °F -0.0 °F 35% 30.09 in 10.0 mi NNW 9.2 mph - N/A   Clear
6:54 PM 21.9 °F 13.4 °F 1.0 °F 40% 30.11 in 10.0 mi NNW 6.9 mph - N/A   Clear
7:54 PM 19.9 °F - -0.9 °F 40% 30.12 in 10.0 mi Calm Calm - N/A   Clear
8:54 PM 14.0 °F - 3.0 °F 62% 30.14 in 10.0 mi Calm Calm - N/A   Clear
9:54 PM 12.0 °F - 3.9 °F 70% 30.14 in 10.0 mi Calm Calm - N/A   Clear
10:54 PM 12.0 °F - 3.0 °F 67% 30.14 in 10.0 mi Calm Calm - N/A   Clear
11:54 PM 10.9 °F - 1.9 °F 67% 30.12 in 10.0 mi Calm Calm - N/A   Clear